When you browse on this site, cookies collect data to enhance your experience and personalize the content and advertising you see.
Visit our Privacy Policy to learn more. By continuing to use the site, you agree to this use of cookies and data.
  • In Czech Republic
  • List of Countries
  • For 7 days
  • Water Temperature
  • Satellite Maps
  • Weather Map
  • Weather Widgets
  • user-avatar
    Login

    Hourly Weather Mansa Konko

    Today, 15 December, Saturday

    Time Temperature Precipitation Wind Pressure Humidity
    00:00 +30°C° 0 mm 2 mps 761 mmHg 14%
    01:00 +30°C° 0 mm 3 mps 761 mmHg 13%
    02:00 +30°C° 0 mm 3 mps 761 mmHg 12%
    03:00 +30°C° 0 mm 3 mps 761 mmHg 12%
    04:00 +29°C° 0 mm 3 mps 761 mmHg 12%
    05:00 +28°C° 0 mm 2 mps 761 mmHg 12%
    06:00 +29°C° 0 mm 3 mps 761 mmHg 12%
    07:00 +30°C° 0 mm 4 mps 761 mmHg 12%
    08:00 +32°C° 0 mm 4 mps 762 mmHg 11%
    09:00 +34°C° 0 mm 5 mps 762 mmHg 10%
    10:00 +37°C° 0 mm 5 mps 762 mmHg 9%
    11:00 +40°C° 0 mm 5 mps 762 mmHg 8%
    12:00 +40°C° 0 mm 5 mps 761 mmHg 8%
    13:00 +41°C° 0 mm 5 mps 760 mmHg 8%
    14:00 +41°C° 0 mm 5 mps 760 mmHg 8%
    15:00 +40°C° 0 mm 5 mps 760 mmHg 9%
    16:00 +39°C° 0 mm 5 mps 760 mmHg 10%
    17:00 +37°C° 0 mm 5 mps 760 mmHg 10%
    18:00 +35°C° 0 mm 5 mps 760 mmHg 10%
    19:00 +34°C° 0 mm 5 mps 761 mmHg 11%
    20:00 +32°C° 0 mm 5 mps 761 mmHg 11%
    21:00 +32°C° 0 mm 5 mps 762 mmHg 12%
    22:00 +30°C° 0 mm 5 mps 762 mmHg 13%
    23:00 +30°C° 0 mm 5 mps 762 mmHg 15%

    Tomorrow, 16 December, Sunday

    Time Temperature Precipitation Wind Pressure Humidity
    00:00 +29°C° 0 mm 5 mps 762 mmHg 15%
    01:00 +29°C° 0 mm 5 mps 761 mmHg 14%
    02:00 +28°C° 0 mm 6 mps 761 mmHg 14%
    03:00 +28°C° 0 mm 5 mps 761 mmHg 17%
    04:00 +27°C° 0 mm 5 mps 761 mmHg 20%
    05:00 +27°C° 0 mm 5 mps 761 mmHg 22%
    06:00 +28°C° 0 mm 5 mps 761 mmHg 22%
    07:00 +29°C° 0 mm 6 mps 762 mmHg 21%
    08:00 +30°C° 0 mm 7 mps 762 mmHg 20%
    09:00 +33°C° 0 mm 7 mps 762 mmHg 18%
    10:00 +35°C° 0 mm 7 mps 762 mmHg 15%
    11:00 +38°C° 0 mm 7 mps 762 mmHg 13%
    12:00 +39°C° 0 mm 6 mps 761 mmHg 12%
    13:00 +39°C° 0 mm 6 mps 760 mmHg 12%
    14:00 +40°C° 0 mm 5 mps 759 mmHg 11%
    15:00 +40°C° 0 mm 5 mps 759 mmHg 11%
    16:00 +38°C° 0 mm 4 mps 759 mmHg 12%
    17:00 +37°C° 0 mm 3 mps 759 mmHg 12%
    18:00 +35°C° 0 mm 3 mps 759 mmHg 13%
    19:00 +33°C° 0 mm 3 mps 760 mmHg 14%
    20:00 +30°C° 0 mm 3 mps 760 mmHg 15%
    21:00 +30°C° 0 mm 3 mps 760 mmHg 15%
    22:00 +29°C° 0 mm 3 mps 761 mmHg 16%
    23:00 +28°C° 0 mm 3 mps 761 mmHg 16%

    Day after tomorrow, 17 December, Monday

    Time Temperature Precipitation Wind Pressure Humidity
    00:00 +27°C° 0 mm 3 mps 760 mmHg 16%
    01:00 +27°C° 0 mm 3 mps 760 mmHg 16%
    02:00 +26°C° 0 mm 3 mps 760 mmHg 16%
    03:00 +26°C° 0 mm 3 mps 760 mmHg 15%
    04:00 +25°C° 0 mm 3 mps 760 mmHg 15%
    05:00 +25°C° 0 mm 3 mps 759 mmHg 14%
    06:00 +26°C° 0 mm 3 mps 760 mmHg 13%
    07:00 +27°C° 0 mm 4 mps 760 mmHg 11%
    08:00 +28°C° 0 mm 4 mps 760 mmHg 10%
    09:00 +32°C° 0 mm 4 mps 760 mmHg 8%
    10:00 +34°C° 0 mm 4 mps 760 mmHg 7%
    11:00 +37°C° 0 mm 4 mps 760 mmHg 6%
    12:00 +38°C° 0 mm 4 mps 759 mmHg 5%
    13:00 +39°C° 0 mm 3 mps 758 mmHg 5%
    14:00 +40°C° 0 mm 3 mps 757 mmHg 5%
    15:00 +39°C° 0 mm 2 mps 757 mmHg 6%
    16:00 +38°C° 0 mm 2 mps 757 mmHg 7%
    17:00 +37°C° 0 mm 2 mps 757 mmHg 8%
    18:00 +35°C° 0 mm 2 mps 758 mmHg 9%
    19:00 +34°C° 0 mm 2 mps 758 mmHg 10%
    20:00 +31°C° 0 mm 2 mps 759 mmHg 10%
    21:00 +30°C° 0 mm 2 mps 759 mmHg 11%
    22:00 +29°C° 0 mm 3 mps 759 mmHg 11%
    23:00 +28°C° 0 mm 3 mps 760 mmHg 12%

    18 December, Tuesday

    Time Temperature Precipitation Wind Pressure Humidity
    00:00 +27°C° 0 mm 2 mps 759 mmHg 11%
    01:00 +26°C° 0 mm 2 mps 759 mmHg 11%
    02:00 +26°C° 0 mm 2 mps 759 mmHg 11%
    03:00 +25°C° 0 mm 2 mps 759 mmHg 11%
    04:00 +24°C° 0 mm 2 mps 759 mmHg 11%
    05:00 +24°C° 0 mm 2 mps 759 mmHg 11%
    06:00 +25°C° 0 mm 2 mps 760 mmHg 11%
    07:00 +26°C° 0 mm 2 mps 760 mmHg 11%
    08:00 +27°C° 0 mm 3 mps 761 mmHg 11%
    09:00 +30°C° 0 mm 3 mps 760 mmHg 9%
    10:00 +34°C° 0 mm 3 mps 760 mmHg 8%
    11:00 +37°C° 0 mm 4 mps 760 mmHg 7%
    12:00 +38°C° 0 mm 3 mps 759 mmHg 6%
    13:00 +39°C° 0 mm 3 mps 758 mmHg 6%
    14:00 +40°C° 0 mm 2 mps 757 mmHg 6%
    15:00 +39°C° 0 mm 2 mps 757 mmHg 6%
    16:00 +38°C° 0 mm 2 mps 757 mmHg 7%
    17:00 +37°C° 0 mm 2 mps 757 mmHg 8%
    18:00 +35°C° 0 mm 2 mps 758 mmHg 9%
    19:00 +32°C° 0 mm 2 mps 758 mmHg 9%
    20:00 +30°C° 0 mm 2 mps 759 mmHg 10%
    21:00 +29°C° 0 mm 2 mps 759 mmHg 12%
    22:00 +28°C° 0 mm 2 mps 759 mmHg 13%
    23:00 +27°C° 0 mm 2 mps 759 mmHg 15%

    19 December, Wednesday

    Time Temperature Precipitation Wind Pressure Humidity
    00:00 +26°C° 0 mm 2 mps 759 mmHg 16%
    01:00 +26°C° 0 mm 2 mps 759 mmHg 16%
    02:00 +25°C° 0 mm 1 mps 758 mmHg 17%
    03:00 +24°C° 0 mm 1 mps 759 mmHg 17%
    04:00 +24°C° 0 mm 1 mps 759 mmHg 16%
    05:00 +23°C° 0 mm 2 mps 759 mmHg 16%
    06:00 +25°C° 0 mm 2 mps 759 mmHg 15%
    07:00 +26°C° 0 mm 2 mps 760 mmHg 15%
    08:00 +27°C° 0 mm 3 mps 760 mmHg 14%
    09:00 +30°C° 0 mm 3 mps 760 mmHg 12%
    10:00 +34°C° 0 mm 3 mps 760 mmHg 10%
    11:00 +37°C° 0 mm 4 mps 760 mmHg 8%
    12:00 +38°C° 0 mm 3 mps 759 mmHg 7%
    13:00 +39°C° 0 mm 3 mps 757 mmHg 7%
    14:00 +40°C° 0 mm 3 mps 756 mmHg 6%
    15:00 +39°C° 0 mm 2 mps 756 mmHg 7%
    16:00 +38°C° 0 mm 2 mps 756 mmHg 8%
    17:00 +36°C° 0 mm 1 mps 756 mmHg 9%
    18:00 +35°C° 0 mm 2 mps 757 mmHg 9%
    19:00 +32°C° 0 mm 2 mps 758 mmHg 10%
    20:00 +30°C° 0 mm 2 mps 758 mmHg 11%
    21:00 +29°C° 0 mm 2 mps 759 mmHg 12%
    22:00 +28°C° 0 mm 2 mps 759 mmHg 12%
    23:00 +27°C° 0 mm 2 mps 759 mmHg 13%

    20 December, Thursday

    Time Temperature Precipitation Wind Pressure Humidity
    00:00 +27°C° 0 mm 2 mps 758 mmHg 13%
    01:00 +26°C° 0 mm 2 mps 758 mmHg 14%
    02:00 +25°C° 0 mm 2 mps 758 mmHg 14%
    03:00 +25°C° 0 mm 2 mps 758 mmHg 14%
    04:00 +24°C° 0 mm 2 mps 758 mmHg 14%
    05:00 +24°C° 0 mm 2 mps 758 mmHg 13%
    06:00 +25°C° 0 mm 2 mps 759 mmHg 13%
    07:00 +26°C° 0 mm 2 mps 759 mmHg 12%
    08:00 +27°C° 0 mm 2 mps 759 mmHg 12%
    09:00 +30°C° 0 mm 3 mps 759 mmHg 10%
    10:00 +34°C° 0 mm 3 mps 759 mmHg 9%
    11:00 +37°C° 0 mm 3 mps 759 mmHg 7%
    12:00 +38°C° 0 mm 3 mps 758 mmHg 7%
    13:00 +39°C° 0 mm 3 mps 757 mmHg 7%
    14:00 +40°C° 0 mm 2 mps 756 mmHg 6%
    15:00 +40°C° 0 mm 2 mps 756 mmHg 7%
    16:00 +39°C° 0 mm 2 mps 756 mmHg 8%
    17:00 +38°C° 0 mm 2 mps 756 mmHg 8%
    18:00 +36°C° 0 mm 2 mps 757 mmHg 9%
    19:00 +34°C° 0 mm 2 mps 758 mmHg 10%
    20:00 +31°C° 0 mm 2 mps 758 mmHg 11%
    21:00 +30°C° 0 mm 2 mps 758 mmHg 12%
    22:00 +29°C° 0 mm 2 mps 758 mmHg 13%
    23:00 +28°C° 0 mm 2 mps 758 mmHg 13%
    Show more